N713DN KORL-KLAL

Flight info

Callsign N713DN
Flight time 0h 32m
Altitude 4500
Route VFR SOUTHWEST
Aircraft COL4/L-DGV/C

Departure

Time 2026-04-26 21:16
Airport Orlando Executive Airport (KORL)

Arrival

Time 2026-04-26 21:48
Airport Lakeland Linder International Airport (KLAL)
Time Latitude Longitude Altitude Speed Heading
2026-04-26 20:46 28.54779 -81.34261 113 ft 0 kts
2026-04-26 21:01 28.54787 -81.34251 113 ft 4 kts 103°
2026-04-26 21:02 28.54738 -81.34234 113 ft 10 kts 168°
2026-04-26 21:02 28.54665 -81.34209 113 ft 12 kts 163°
2026-04-26 21:02 28.54566 -81.34199 113 ft 16 kts 178°
2026-04-26 21:02 28.54472 -81.34197 113 ft 9 kts 171°
2026-04-26 21:03 28.54446 -81.34121 113 ft 13 kts 93°
2026-04-26 21:03 28.54435 -81.33999 113 ft 17 kts 98°
2026-04-26 21:03 28.54443 -81.33853 113 ft 19 kts 53°
2026-04-26 21:03 28.54509 -81.33738 113 ft 15 kts 65°
2026-04-26 21:04 28.54558 -81.33611 113 ft 19 kts 64°
2026-04-26 21:04 28.54614 -81.33460 113 ft 21 kts 66°
2026-04-26 21:04 28.54676 -81.33295 113 ft 23 kts 67°
2026-04-26 21:04 28.54744 -81.33114 113 ft 25 kts 67°
2026-04-26 21:05 28.54813 -81.32925 113 ft 26 kts 67°
2026-04-26 21:05 28.54888 -81.32735 113 ft 26 kts 66°
2026-04-26 21:05 28.54957 -81.32552 113 ft 24 kts 69°
2026-04-26 21:05 28.55018 -81.32391 113 ft 18 kts 67°
2026-04-26 21:06 28.55043 -81.32278 113 ft 11 kts 129°
2026-04-26 21:06 28.55018 -81.32260 113 ft 0 kts 168°
2026-04-26 21:15 28.55003 -81.32253 113 ft 5 kts 156°
2026-04-26 21:15 28.54945 -81.32225 113 ft 11 kts 176°
2026-04-26 21:15 28.54888 -81.32331 113 ft 32 kts 246°
2026-04-26 21:16 28.54701 -81.32811 134 ft 91 kts 248°
2026-04-26 21:16 28.54431 -81.33486 467 ft 95 kts 249°
2026-04-26 21:16 28.54128 -81.34215 725 ft 111 kts 247°
2026-04-26 21:16 28.53787 -81.34993 1113 ft 113 kts 246°
2026-04-26 21:17 28.53445 -81.35792 1538 ft 112 kts 247°
2026-04-26 21:17 28.53181 -81.36607 1944 ft 112 kts 258°
2026-04-26 21:17 28.53084 -81.37482 2372 ft 110 kts 272°
2026-04-26 21:17 28.53141 -81.38351 2729 ft 115 kts 275°
2026-04-26 21:18 28.53273 -81.39262 3105 ft 118 kts 282°
2026-04-26 21:18 28.53443 -81.40160 3531 ft 116 kts 276°
2026-04-26 21:18 28.53501 -81.41087 3876 ft 121 kts 272°
2026-04-26 21:18 28.53504 -81.42035 4292 ft 120 kts 270°
2026-04-26 21:19 28.53458 -81.42996 4496 ft 129 kts 266°
2026-04-26 21:19 28.53404 -81.44044 4488 ft 131 kts 269°
2026-04-26 21:19 28.53380 -81.44491 4486 ft 129 kts 268°
2026-04-26 21:19 28.53274 -81.45378 4514 ft 140 kts 263°
2026-04-26 21:20 28.53138 -81.46519 4506 ft 152 kts 264°
2026-04-26 21:20 28.53002 -81.47755 4508 ft 160 kts 264°
2026-04-26 21:20 28.52864 -81.49022 4508 ft 165 kts 264°
2026-04-26 21:20 28.52721 -81.50337 4506 ft 168 kts 264°
2026-04-26 21:21 28.52577 -81.51650 4504 ft 168 kts 264°
2026-04-26 21:21 28.52434 -81.52980 4506 ft 168 kts 264°
2026-04-26 21:21 28.52291 -81.54303 4507 ft 169 kts 264°
2026-04-26 21:21 28.52146 -81.55627 4509 ft 169 kts 264°
2026-04-26 21:22 28.52002 -81.56964 4510 ft 169 kts 264°
2026-04-26 21:22 28.51857 -81.58294 4512 ft 170 kts 264°
2026-04-26 21:22 28.51604 -81.59594 4507 ft 172 kts 248°
2026-04-26 21:23 28.50215 -81.61823 4516 ft 174 kts 231°
2026-04-26 21:23 28.49412 -81.62868 4516 ft 174 kts 230°
2026-04-26 21:23 28.48613 -81.63889 4516 ft 175 kts 230°
2026-04-26 21:23 28.47799 -81.64924 4516 ft 175 kts 230°
2026-04-26 21:24 28.46994 -81.65945 4517 ft 175 kts 230°
2026-04-26 21:24 28.46178 -81.66981 4517 ft 175 kts 230°
2026-04-26 21:24 28.45373 -81.68002 4516 ft 175 kts 230°
2026-04-26 21:24 28.44557 -81.69036 4516 ft 174 kts 230°
2026-04-26 21:25 28.43756 -81.70054 4517 ft 174 kts 230°
2026-04-26 21:25 28.42945 -81.71085 4516 ft 174 kts 230°
2026-04-26 21:25 28.42132 -81.72115 4519 ft 173 kts 230°
2026-04-26 21:25 28.41333 -81.73126 4519 ft 173 kts 230°
2026-04-26 21:26 28.40531 -81.74139 4520 ft 172 kts 231°
2026-04-26 21:26 28.39741 -81.75144 4515 ft 169 kts 230°
2026-04-26 21:26 28.38963 -81.76130 4512 ft 165 kts 230°
2026-04-26 21:26 28.38197 -81.77101 4482 ft 164 kts 230°
2026-04-26 21:27 28.37448 -81.78045 4353 ft 161 kts 230°
2026-04-26 21:27 28.36696 -81.78999 4189 ft 161 kts 231°
2026-04-26 21:27 28.35964 -81.79927 4008 ft 158 kts 230°
2026-04-26 21:27 28.35230 -81.80856 3830 ft 155 kts 230°
2026-04-26 21:28 28.34519 -81.81752 3663 ft 151 kts 231°
2026-04-26 21:28 28.33826 -81.82629 3482 ft 146 kts 231°
2026-04-26 21:28 28.33168 -81.83459 3305 ft 141 kts 231°
2026-04-26 21:28 28.32519 -81.84284 3118 ft 137 kts 231°
2026-04-26 21:29 28.31891 -81.85075 2933 ft 135 kts 231°
2026-04-26 21:29 28.31269 -81.85856 2751 ft 132 kts 231°
2026-04-26 21:29 28.30613 -81.86689 2563 ft 130 kts 232°
2026-04-26 21:29 28.29990 -81.87477 2383 ft 128 kts 232°
2026-04-26 21:30 28.29404 -81.88217 2205 ft 126 kts 230°
2026-04-26 21:30 28.28814 -81.88963 2023 ft 126 kts 231°
2026-04-26 21:30 28.28237 -81.89693 1845 ft 125 kts 231°
2026-04-26 21:30 28.27843 -81.90191 1723 ft 125 kts 231°
2026-04-26 21:31 28.26823 -81.90768 1472 ft 136 kts 181°
2026-04-26 21:31 28.25897 -81.90475 1333 ft 145 kts 159°
2026-04-26 21:31 28.25025 -81.89870 1237 ft 146 kts 149°
2026-04-26 21:31 28.24242 -81.89179 1215 ft 141 kts 147°
2026-04-26 21:32 28.23503 -81.88474 1218 ft 135 kts 145°
2026-04-26 21:32 28.22810 -81.87791 1227 ft 132 kts 144°
2026-04-26 21:32 28.22115 -81.87100 1231 ft 131 kts 145°
2026-04-26 21:32 28.21442 -81.86432 1216 ft 128 kts 144°
2026-04-26 21:33 28.20780 -81.85773 1210 ft 124 kts 145°
2026-04-26 21:33 28.20147 -81.85136 1221 ft 119 kts 146°
2026-04-26 21:33 28.19531 -81.84519 1224 ft 116 kts 146°
2026-04-26 21:33 28.18933 -81.83929 1220 ft 114 kts 146°
2026-04-26 21:34 28.18338 -81.83334 1227 ft 112 kts 146°
2026-04-26 21:34 28.17747 -81.82749 1230 ft 111 kts 145°
2026-04-26 21:34 28.17154 -81.82209 1211 ft 108 kts 161°
2026-04-26 21:34 28.16448 -81.82072 1237 ft 101 kts 191°
2026-04-26 21:35 28.15754 -81.82150 1237 ft 102 kts 196°
2026-04-26 21:35 28.15042 -81.82307 1239 ft 104 kts 200°
2026-04-26 21:35 28.14326 -81.82502 1228 ft 106 kts 201°
2026-04-26 21:35 28.13612 -81.82717 1235 ft 108 kts 201°
2026-04-26 21:36 28.12883 -81.82945 1228 ft 108 kts 201°
2026-04-26 21:36 28.12405 -81.83102 1230 ft 106 kts 205°
2026-04-26 21:36 28.11734 -81.83794 1228 ft 96 kts 238°
2026-04-26 21:36 28.11378 -81.84424 1219 ft 95 kts 241°
2026-04-26 21:37 28.11057 -81.85069 1216 ft 92 kts 245°
2026-04-26 21:37 28.10763 -81.85706 1220 ft 90 kts 245°
2026-04-26 21:37 28.10487 -81.86346 1218 ft 89 kts 246°
2026-04-26 21:37 28.10223 -81.86974 1226 ft 89 kts 246°
2026-04-26 21:38 28.09959 -81.87618 1230 ft 89 kts 247°
2026-04-26 21:38 28.09695 -81.88264 1232 ft 90 kts 246°
2026-04-26 21:38 28.09433 -81.88911 1232 ft 92 kts 247°
2026-04-26 21:38 28.09163 -81.89584 1221 ft 94 kts 246°
2026-04-26 21:39 28.08895 -81.90254 1227 ft 95 kts 246°
2026-04-26 21:39 28.08618 -81.90943 1233 ft 95 kts 245°
2026-04-26 21:39 28.08423 -81.91665 1220 ft 95 kts 266°
2026-04-26 21:39 28.08369 -81.92355 1311 ft 86 kts 264°
2026-04-26 21:40 28.08301 -81.93079 1249 ft 94 kts 269°
2026-04-26 21:40 28.08309 -81.93828 1240 ft 97 kts 271°
2026-04-26 21:40 28.08320 -81.94599 1233 ft 98 kts 270°
2026-04-26 21:40 28.08325 -81.95367 1241 ft 97 kts 271°
2026-04-26 21:41 28.08329 -81.96138 1220 ft 96 kts 270°
2026-04-26 21:41 28.08331 -81.96893 1222 ft 94 kts 269°
2026-04-26 21:41 28.08326 -81.97620 1229 ft 92 kts 265°
2026-04-26 21:41 28.08048 -81.98273 1240 ft 92 kts 237°
2026-04-26 21:42 28.07634 -81.98833 1228 ft 94 kts 233°
2026-04-26 21:42 28.07184 -81.99367 1228 ft 93 kts 231°
2026-04-26 21:42 28.06717 -81.99876 1228 ft 92 kts 229°
2026-04-26 21:42 28.06256 -82.00369 1225 ft 91 kts 229°
2026-04-26 21:43 28.05788 -82.00853 1233 ft 90 kts 228°
2026-04-26 21:43 28.05281 -82.01268 1227 ft 94 kts 208°
2026-04-26 21:43 28.04630 -82.01445 1230 ft 96 kts 197°
2026-04-26 21:43 28.03954 -82.01534 1236 ft 100 kts 192°
2026-04-26 21:44 28.03258 -82.01511 1246 ft 101 kts 182°
2026-04-26 21:44 28.02575 -82.01421 1276 ft 95 kts 179°
2026-04-26 21:44 28.01899 -82.01240 1253 ft 98 kts 156°
2026-04-26 21:44 28.01555 -82.00545 1196 ft 112 kts 86°
2026-04-26 21:45 28.01962 -81.99860 1207 ft 102 kts 13°
2026-04-26 21:45 28.02565 -81.99977 1204 ft 86 kts 307°
2026-04-26 21:45 28.02718 -82.00565 1258 ft 78 kts 267°
2026-04-26 21:45 28.02623 -82.01163 1289 ft 78 kts 244°
2026-04-26 21:46 28.02086 -82.01444 1226 ft 99 kts 187°
2026-04-26 21:46 28.01420 -82.01386 1245 ft 103 kts 164°
2026-04-26 21:46 28.00863 -82.00811 1064 ft 116 kts 129°
2026-04-26 21:46 28.00331 -82.00163 839 ft 107 kts 166°
2026-04-26 21:47 27.99704 -82.00251 645 ft 87 kts 214°
2026-04-26 21:47 27.99247 -82.00664 421 ft 85 kts 234°
2026-04-26 21:47 27.99043 -82.01283 220 ft 86 kts 265°
2026-04-26 21:47 27.99038 -82.01933 145 ft 74 kts 269°
2026-04-26 21:48 27.99037 -82.02468 145 ft 64 kts 268°
2026-04-26 21:48 27.99036 -82.02808 145 ft 63 kts 269°
2026-04-26 21:48 27.99035 -82.03264 145 ft 37 kts 272°
2026-04-26 21:48 27.98996 -82.03374 145 ft 1 kts 180°
2026-04-26 21:49 27.98995 -82.03374 145 ft 0 kts 184°
2026-04-26 21:49 27.98992 -82.03374 145 ft 1 kts 185°
2026-04-26 21:49 27.98952 -82.03374 145 ft 10 kts 181°
2026-04-26 21:49 27.98849 -82.03376 145 ft 18 kts 184°
2026-04-26 21:50 27.98780 -82.03285 145 ft 18 kts 87°
2026-04-26 21:50 27.98784 -82.03187 145 ft 19 kts 89°
2026-04-26 21:50 27.98784 -82.03036 145 ft 15 kts 86°
2026-04-26 21:50 27.98814 -82.02840 145 ft 21 kts 89°
2026-04-26 21:51 27.98815 -82.02776 145 ft 2 kts 91°
2026-04-26 21:51 27.98814 -82.02757 145 ft 0 kts 93°
2026-04-26 21:51 27.98813 -82.02708 145 ft 11 kts 94°
2026-04-26 21:51 27.98818 -82.02586 145 ft 19 kts 89°
2026-04-26 21:52 27.98820 -82.02411 145 ft 24 kts 91°
2026-04-26 21:52 27.98795 -82.02306 145 ft 19 kts 152°
2026-04-26 21:52 27.98732 -82.02174 145 ft 20 kts 89°
2026-04-26 21:52 27.98749 -82.02060 145 ft 5 kts 30°
2026-04-26 21:53 27.98751 -82.02057 145 ft 0 kts 51°
2026-04-26 21:53 27.98719 -82.02064 145 ft 12 kts 241°
2026-04-26 21:54 27.98676 -82.02104 145 ft 3 kts 182°
2026-04-26 21:54 27.98688 -82.02094 145 ft 0 kts 345°